KQ5S-13 Weather Reports


time (UTC)temp
F
wind
direction
speed
knots
gust
knots
rain 1hr
in
rain 24hr
in
rain mn
in
humidity
%
barometer
mb
20260504180036 74 158 3.5 7.8 0.00 0.00 0.00 52 1015.7
20260504175016 74 203 1.7 5.2 0.00 0.00 0.00 51 1015.9
20260504174016 74 203 1.7 5.2 0.00 0.00 0.00 51 1016.0
20260504173016 74 248 3.5 7.0 0.00 0.00 0.00 53 1016.1
20260504172015 74 203 1.7 6.1 0.00 0.00 0.00 52 1016.3
20260504171015 74 270 1.7 3.5 0.00 0.00 0.00 51 1016.5
20260504151017 70 270 1.7 6.1 0.00 0.00 0.00 50 1017.3
20260504141037 67 248 1.7 3.5 0.00 0.00 0.00 54 1017.7
20260504110158 43 0.0 0.0 0.00 0.00 0.00 91 1016.7
20260504081036 44 0.0 0.0 0.00 0.00 0.00 88 1016.5
20260504050016 46 0.0 0.0 0.00 0.00 0.00 84 1017.6
20260504045017 47 0.0 0.0 0.00 0.00 0.00 84 1017.6
20260504044017 47 0.0 0.0 0.00 0.00 0.00 84 1017.6
20260504043017 47 0.0 0.0 0.00 0.00 0.00 84 1017.8
20260504042037 47 0.0 0.9 0.00 0.00 0.00 83 1017.7
20260504041017 48 0.0 0.9 0.00 0.00 0.00 82 1017.9
20260504040017 48 0.0 0.0 0.00 0.00 0.00 82 1018.0
20260504035017 48 0.0 0.9 0.00 0.00 0.00 82 1018.1
20260504034017 49 0.0 0.0 0.00 0.00 0.00 81 1018.2
20260504033037 49 0.0 0.0 0.00 0.00 0.00 81 1018.3
20260504032017 50 0.0 0.0 0.00 0.00 0.00 80 1018.3
20260504031017 50 0.0 0.0 0.00 0.00 0.00 77 1018.3
20260504030017 50 0.0 0.0 0.00 0.00 0.00 76 1018.2
20260504025017 51 0.0 0.0 0.00 0.00 0.00 76 1018.0
20260504024017 51 0.0 0.0 0.00 0.00 0.00 76 1018.0
20260504023016 52 0.0 0.0 0.00 0.00 0.00 75 1018.0
20260504022037 52 0.0 0.0 0.00 0.00 0.00 74 1017.7
20260504021016 53 0.0 1.7 0.00 0.00 0.00 74 1017.7
20260504020016 53 0.0 0.0 0.00 0.00 0.00 73 1017.6
20260504015017 54 0.0 0.0 0.00 0.00 0.00 71 1017.5
20260504014016 55 0.0 0.0 0.00 0.00 0.00 70 1017.4
20260504013016 56 0.0 0.0 0.00 0.00 0.00 68 1017.4
20260504012017 57 0.0 0.9 0.00 0.00 0.00 66 1017.3
20260504011016 57 0.0 0.0 0.00 0.00 0.00 65 1017.3
20260504010017 58 0.0 0.0 0.00 0.00 0.00 63 1017.3
20260504005037 59 0.0 0.0 0.00 0.00 0.00 61 1017.3
20260504004057 60 0.0 0.0 0.00 0.00 0.00 57 1017.2
20260504003017 62 0.0 0.0 0.00 0.00 0.00 54 1017.1
20260504002017 62 0.0 0.0 0.00 0.00 0.00 48 1017.0
20260504001016 63 0.0 0.0 0.00 0.00 0.00 46 1017.1
20260504000017 64 0.0 0.0 0.00 0.00 0.00 45 1017.1
20260503235037 64 0.0 0.9 0.00 0.00 0.00 43 1017.0
20260503234137 65 270 0.9 2.6 0.00 0.00 0.00 42 1017.1
20260503233017 65 270 0.9 1.7 0.00 0.00 0.00 41 1017.1
20260503232016 66 315 0.9 3.5 0.00 0.00 0.00 41 1017.0
20260503231016 66 270 1.7 3.5 0.00 0.00 0.00 39 1017.0
20260503230016 67 270 0.9 3.5 0.00 0.00 0.00 39 1017.1
20260503225017 68 270 1.7 5.2 0.00 0.00 0.00 39 1017.2
20260503224016 69 315 0.9 2.6 0.00 0.00 0.00 36 1017.2
20260503223016 69 270 1.7 6.1 0.00 0.00 0.00 35 1017.4
20260503222016 70 293 1.7 5.2 0.00 0.00 0.00 33 1017.5
20260503221016 70 270 2.6 7.8 0.00 0.00 0.00 34 1017.6
20260503220016 70 293 1.7 4.3 0.00 0.00 0.00 37 1017.6
20260503215016 70 248 1.7 5.2 0.00 0.00 0.00 37 1017.7
20260503214016 70 270 2.6 8.7 0.00 0.00 0.00 39 1017.7
20260503213016 70 270 1.7 5.2 0.00 0.00 0.00 40 1017.8
20260503212036 69 315 1.7 7.0 0.00 0.00 0.00 40 1018.0
20260503211016 68 293 1.7 3.5 0.00 0.00 0.00 44 1017.9
20260503210036 67 248 1.7 3.5 0.00 0.00 0.00 42 1018.0
20260503205016 67 293 2.6 5.2 0.00 0.00 0.00 46 1018.2
20260503204016 66 293 1.7 6.1 0.00 0.00 0.00 45 1018.3
20260503203016 66 0 1.7 3.5 0.00 0.00 0.00 45 1018.5
20260503202016 66 270 2.6 7.0 0.00 0.00 0.00 50 1018.7
20260503201016 65 315 2.6 5.2 0.00 0.00 0.00 45 1018.7
20260503200056 65 270 1.7 3.5 0.00 0.00 0.00 46 1018.9
20260503195016 65 293 0.9 2.6 0.00 0.00 0.00 50 1019.2
20260503194016 65 315 1.7 9.6 0.00 0.00 0.00 47 1019.3
20260503193016 64 248 1.7 6.1 0.00 0.00 0.00 49 1019.4
20260503192016 64 293 1.7 6.1 0.00 0.00 0.00 49 1019.8
20260503191016 64 225 1.7 2.6 0.00 0.00 0.00 48 1019.8
20260503190016 63 270 1.7 8.7 0.00 0.00 0.00 48 1020.0
20260503185016 63 293 1.7 6.1 0.00 0.00 0.00 49 1020.2
20260503184016 63 338 2.6 6.1 0.00 0.00 0.00 50 1020.3
20260503183016 63 270 1.7 4.3 0.00 0.00 0.00 48 1020.4
20260503182016 62 68 1.7 3.5 0.00 0.00 0.00 44 1020.5
20260503181016 62 270 1.7 6.1 0.00 0.00 0.00 50 1020.6